Weather History for Ironwood, MI

Change the Weather History Date:

Wednesday, April 24, 2013

  Actual Average Record
Temperature  
Mean Temperature 38 °F -  
Max Temperature 44 °F 54 °F 66 °F (1998)
Min Temperature 33 °F 31 °F 21 °F (1999)
Degree Days  
Heating Degree Days 26    
Moisture  
Dew Point 25 °F    
Average Humidity 62    
Maximum Humidity 87    
Minimum Humidity 37    
Precipitation  
Precipitation 0.02 in - - ()
Sea Level Pressure  
Sea Level Pressure 29.84 in    
Wind  
Wind Speed 10 mph (WSW)    
Max Wind Speed 18 mph    
Max Gust Speed 23 mph    
Visibility 9 miles    
Events      
Averages and records for this station are not official NWS values.
T = Trace of Precipitation, MM = Missing Value Source: NWS Daily Summary

Daily Weather History Graph

Daily Weather History Graph

Search for Another Location

Airport:

Trip Planner

Search our weather history database for the weather conditions in past years. The results will help you decide how hot, cold, wet, or windy it might be!

Date:

Astronomy

Apr. 24, 2013 Rise Set
Actual Time 5:57 AM CDT 8:00 PM CDT
Civil Twilight 5:24 AM CDT 8:33 PM CDT
Nautical Twilight 4:44 AM CDT 9:14 PM CDT
Astronomical Twilight 3:59 AM CDT 9:59 PM CDT
Moon 7:02 PM CDT (4/24) 5:05 AM CDT (4/24)
Length of Visible Light 15h 09m
Length of Day
14h 03m
Waxing Gibbous, 98% of the Moon is Illuminated
Apr 24
Waxing Gibbous
Apr 25
Full
May 2
Last Quarter
May 9
New
May 17
First Quarter

Hourly Weather History & Observations

Time (CDT) Temp. Windchill Dew Point Humidity Pressure Visibility Wind Dir Wind Speed Gust Speed Precip Events Conditions
12:15 PM 39.2 °F 32.5 °F 19.4 °F 45% 29.88 in 10.0 mi West 10.4 mph - N/A   Mostly Cloudy
12:35 PM 39.2 °F 32.0 °F 19.4 °F 45% 29.87 in 10.0 mi West 11.5 mph - N/A   Mostly Cloudy
12:55 PM 41.0 °F 34.3 °F 19.4 °F 42% 29.86 in 10.0 mi West 11.5 mph - N/A   Mostly Cloudy
1:15 PM 42.8 °F 35.4 °F 19.4 °F 39% 29.85 in 10.0 mi West 15.0 mph - N/A   Mostly Cloudy
1:35 PM 42.8 °F 35.1 °F 19.4 °F 39% 29.85 in 10.0 mi West 16.1 mph 20.7 mph N/A   Partly Cloudy
1:55 PM 42.8 °F 35.8 °F 19.4 °F 39% 29.84 in 10.0 mi WSW 13.8 mph 17.3 mph N/A   Partly Cloudy
2:15 PM 42.8 °F 37.5 °F 19.4 °F 39% 29.84 in 10.0 mi WSW 9.2 mph - N/A   Clear
2:35 PM 42.8 °F 38.6 °F 19.4 °F 39% 29.84 in 10.0 mi SW 6.9 mph - N/A   Partly Cloudy
2:55 PM 44.6 °F 38.1 °F 21.2 °F 39% 29.83 in 10.0 mi WSW 13.8 mph 18.4 mph N/A   Partly Cloudy
3:15 PM 44.6 °F 38.4 °F 19.4 °F 37% 29.83 in 10.0 mi West 12.7 mph - N/A   Scattered Clouds
3:35 PM 44.6 °F 38.8 °F 19.4 °F 37% 29.82 in 10.0 mi West 11.5 mph - N/A   Mostly Cloudy
3:55 PM 44.6 °F 37.8 °F 21.2 °F 39% 29.82 in 10.0 mi WSW 15.0 mph - N/A   Overcast
4:15 PM 44.6 °F 38.1 °F 21.2 °F 39% 29.82 in 10.0 mi West 13.8 mph 23.0 mph N/A   Overcast
4:35 PM 42.8 °F 36.6 °F 24.8 °F 49% 29.82 in 10.0 mi West 11.5 mph - N/A   Mostly Cloudy
4:55 PM 42.8 °F 39.3 °F 23.0 °F 46% 29.82 in 10.0 mi WNW 5.8 mph - N/A   Overcast
5:15 PM 42.8 °F 37.0 °F 24.8 °F 49% 29.83 in 10.0 mi SW 10.4 mph - N/A   Overcast
5:35 PM 39.2 °F 29.8 °F 26.6 °F 61% 29.85 in 10.0 mi WNW 18.4 mph 21.9 mph N/A   Mostly Cloudy
5:55 PM 35.6 °F 32.8 °F 26.6 °F 70% 29.85 in 2.5 mi NW 3.5 mph - N/A   Overcast
6:15 PM 35.6 °F - 28.4 °F 75% 29.84 in 10.0 mi Calm Calm - N/A   Mostly Cloudy
6:35 PM 35.6 °F - 28.4 °F 75% 29.83 in 10.0 mi Calm Calm - N/A   Mostly Cloudy
6:55 PM 35.6 °F 32.8 °F 28.4 °F 75% 29.83 in 10.0 mi East 3.5 mph - N/A   Mostly Cloudy
7:15 PM 35.6 °F 31.7 °F 30.2 °F 81% 29.83 in 10.0 mi ESE 4.6 mph - N/A   Mostly Cloudy
7:35 PM 35.6 °F 32.8 °F 30.2 °F 81% 29.84 in 10.0 mi SSW 3.5 mph - N/A   Overcast
7:55 PM 35.6 °F 30.7 °F 30.2 °F 81% 29.84 in 5.0 mi West 5.8 mph - 0.01 in   Overcast
8:15 PM 33.8 °F 29.6 °F 28.4 °F 81% 29.84 in 5.0 mi WSW 4.6 mph - 0.01 in   Overcast
8:35 PM 33.8 °F - 28.4 °F 81% 29.84 in 4.0 mi Calm Calm - 0.01 in   Overcast
8:55 PM 33.8 °F 28.6 °F 28.4 °F 81% 29.86 in 1.0 mi West 5.8 mph - 0.01 in   Overcast
9:55 PM 33.8 °F 29.6 °F 28.4 °F 81% 29.86 in 4.0 mi SW 4.6 mph - N/A   Mostly Cloudy
10:15 PM 33.8 °F 30.8 °F 28.4 °F 81% 29.86 in 7.0 mi SW 3.5 mph - N/A   Overcast
10:35 PM 33.8 °F 29.6 °F 30.2 °F 87% 29.87 in 10.0 mi SW 4.6 mph - N/A   Overcast
10:55 PM 33.8 °F 29.6 °F 30.2 °F 87% 29.87 in 10.0 mi WSW 4.6 mph - N/A   Overcast
11:15 PM 33.8 °F 28.6 °F 28.4 °F 81% 29.87 in 10.0 mi West 5.8 mph - N/A   Overcast
11:35 PM 33.8 °F 27.7 °F 30.2 °F 87% 29.86 in 10.0 mi West 6.9 mph - N/A   Overcast
11:55 PM 33.8 °F 28.6 °F 30.2 °F 87% 29.86 in 10.0 mi WNW 5.8 mph - N/A   Overcast